Temperature
18 18 18 18 19 19 19 18 18 18 18 18 18 18 18 18 18 18 18 18 18 18 18 17 17 17 17 17 17 17 17 17 17 17 17 16 16 16 16 16 16 16 16
18 18 18 18 19 19 18 18 18 18 18 18 18 18 18 18 18 18 18 18 18 18 18 17 17 17 17 17 17 17 17 17 17 17 17 16 16 16 16 16 16 16 16
18 18 18 18 18 18 18 18 18 18 18 18 18 18 18 18 18 17 17 17 17 17 17 17 17 17 17 17 17 17 17 17 17 17 16 16 16 16 16 16 16 16 16
18 18 18 19 18 18 18 18 18 18 18 18 18 18 18 18 18 18 18 17 17 17 17 17 17 17 17 17 17 17 17 17 16 16 16 16 16 16 16 16 16 16 16
18 18 18 18 18 18 18 18 18 18 18 18 18 18 18 18 18 18 18 18 17 17 17 17 17 17 17 17 17 17 17 17 16 16 16 16 16 16 16 16 16 16 16
18 18 19 18 19 19 18 18 18 18 18 18 19 18 18 18 18 18 18 18 18 18 18 17 17 17 17 17 17 17 17 17 17 16 16 16 16 16 16 16 16 16 16
18 18 19 18 18 18 18 18 18 18 18 18 18 19 19 18 18 18 18 18 18 18 18 17 17 17 17 17 17 17 17 17 16 16 16 16 16 16 16 16 16 16 16
18 18 18 19 18 18 18 18 18 18 19 18 18 19 19 19 18 18 18 18 18 18 18 18 17 17 17 17 17 17 17 17 17 16 16 16 16 16 16 16 16 16 16
18 18 18 18 18 18 18 18 18 18 18 18 18 19 20 20 19 19 18 18 18 18 18 18 17 17 17 17 17 17 17 17 17 16 16 16 16 16 16 16 16 16 16
18 18 18 18 18 18 18 18 18 18 18 19 18 18 18 19 19 19 19 18 18 18 18 18 17 17 17 17 17 17 17 17 17 16 16 16 16 16 16 16 16 16 16
18 18 18 18 18 18 18 18 18 18 18 18 18 18 18 18 18 19 19 18 18 18 18 17 17 17 17 17 17 17 17 17 17 16 16 16 16 16 16 16 16 16 15
18 18 18 18 18 18 18 18 18 18 18 18 18 18 18 18 18 18 18 18 18 18 17 17 17 17 17 17 17 17 17 17 17 17 16 16 16 16 16 16 16 16 15
19 18 18 18 18 18 18 18 18 18 18 18 18 18 18 18 18 18 18 18 18 18 17 17 17 17 17 17 17 16 16 16 16 16 16 16 16 16 16 16 15 15 15
19 18 18 18 18 18 18 18 18 18 18 18 18 18 18 18 18 17 18 18 18 18 18 17 17 17 17 16 16 16 16 16 16 16 16 16 16 16 15 15 15 15 15
18 18 18 18 18 18 18 18 18 18 18 18 18 18 18 18 17 17 17 17 18 18 18 17 17 17 16 16 16 16 16 16 16 16 16 16 15 15 15 15 15 15 15
18 18 18 18 18 18 18 18 18 18 18 18 18 18 18 17 17 17 17 17 17 17 17 17 16 16 16 16 16 16 16 16 16 16 16 15 15 15 15 15 15 15 15
18 18 18 18 18 18 17 17 17 17 17 17 17 17 17 17 17 17 17 17 17 17 17 16 16 16 16 16 15 15 15 15 15 15 15 15 15 15 15 15 15 14 14
18 18 18 18 18 17 17 17 17 17 17 17 17 17 17 17 17 17 17 16 16 16 16 16 16 15 15 15 15 15 15 15 15 15 15 15 15 15 15 14 14 14 14
18 17 17 17 17 17 17 17 17 17 17 17 17 17 17 17 17 16 16 16 16 16 16 16 15 15 15 15 15 15 14 14 14 14 14 14 14 14 14 14 14 14 14
17 17 17 17 17 17 17 17 17 17 17 17 17 17 16 16 16 16 16 16 16 15 15 15 15 15 15 15 15 14 14 14 14 14 14 14 14 14 14 14 14 14 14
17 17 17 17 17 17 17 17 17 16 16 16 16 16 16 16 16 16 15 15 15 15 15 15 15 15 15 14 14 14 14 14 14 14 14 14 14 13 13 13 13 13 13
17 17 17 17 16 17 17 17 17 16 16 16 16 16 16 16 16 16 16 15 15 15 15 15 15 14 14 14 14 14 14 14 13 13 13 13 13 13 13 13 13 13 13
17 16 16 16 16 17 17 17 16 16 16 16 16 15 15 16 15 15 15 15 15 15 15 14 14 14 14 14 13 13 13 13 13 13 13 13 13 13 13 13 13 13 13
16 16 16 16 16 16 16 16 16 16 15 15 15 15 15 15 15 15 15 14 14 14 14 14 14 14 13 14 13 13 13 13 13 13 13 13 13 13 13 12 13 12 12
16 16 16 16 16 16 16 16 16 15 15 15 15 15 15 15 15 15 14 14 14 14 14 14 14 13 13 13 13 13 12 13 13 13 12 12 12 12 12 12 12 12 12
16 15 15 15 15 15 15 15 15 15 14 14 15 14 15 15 14 14 14 14 14 13 13 13 13 13 13 13 13 12 12 12 12 13 12 12 12 12 12 12 12 12 12
Wind_Speed
4 4 4 3 4 4 4 4 3 4 3 3 3 3 3 3 3 3 5 8 7 7 6 6 7 8 8 8 8 8 7 7 7 7 7 6 6 7 7 8 8 8 8
4 3 3 3 3 3 3 3 3 3 2 2 3 2 1 2 3 2 4 7 8 7 7 7 7 8 8 8 8 9 8 8 8 8 7 7 7 7 8 8 8 8 9
3 2 2 2 3 3 3 2 2 2 2 2 2 2 2 2 2 2 3 4 6 8 8 8 8 8 8 9 9 10 10 10 9 9 8 8 8 9 9 9 9 9 10
2 1 2 2 2 2 2 2 1 2 2 2 2 1 2 2 2 3 3 3 3 4 7 9 8 8 8 9 10 10 10 10 9 9 9 9 10 10 10 10 10 10 11
2 1 1 2 0 1 1 0 2 1 1 1 2 2 2 2 2 3 2 3 3 3 3 7 9 8 10 10 10 10 11 10 9 9 9 9 10 10 11 11 11 11 11
1 0 1 0 0 0 0 1 1 1 1 1 0 1 1 1 2 2 2 2 2 3 3 3 5 7 9 10 9 9 8 8 7 7 8 8 8 9 9 10 10 10 10
1 1 1 0 1 0 1 1 1 2 1 1 1 1 2 2 2 2 2 1 2 2 2 3 3 3 4 8 8 6 6 7 8 8 8 8 8 8 8 8 8 9 9
0 1 1 1 1 0 1 1 1 1 1 1 1 1 1 3 2 2 2 2 2 2 2 3 3 3 4 3 4 7 6 7 7 7 8 8 8 8 8 8 8 8 8
1 1 1 2 2 2 0 1 1 1 1 1 1 2 1 0 1 2 1 1 1 1 2 1 2 2 3 3 2 5 6 6 6 7 7 7 7 8 9 9 9 9 9
0 0 1 1 2 1 1 1 0 1 2 1 1 1 2 1 1 1 1 1 1 1 2 2 2 2 3 3 2 1 3 4 5 5 6 5 6 7 8 8 8 9 9
0 0 0 1 1 1 2 2 1 1 1 1 1 0 1 2 3 2 2 1 1 1 1 2 2 3 3 3 3 1 3 3 4 4 5 5 5 6 7 7 7 8 8
1 1 1 0 0 1 1 1 1 0 1 2 2 1 1 1 1 1 3 3 3 2 2 2 2 2 2 3 2 2 3 4 4 4 5 5 5 5 5 5 6 6 7
1 1 0 0 0 0 0 1 0 1 0 1 1 1 2 2 2 2 3 3 4 3 2 2 2 2 2 2 1 2 3 5 5 4 4 5 5 5 5 5 5 5 6
1 0 1 1 1 1 1 1 1 1 1 1 2 2 2 2 2 3 3 4 4 4 3 3 2 2 2 2 1 3 3 5 5 5 5 5 5 6 6 5 5 5 5
2 1 2 2 1 1 1 2 1 2 2 3 3 3 3 2 3 3 3 4 5 5 5 4 3 2 2 2 2 3 3 3 5 6 6 6 6 6 6 6 6 5 6
2 2 2 2 2 2 2 3 3 2 3 3 3 3 4 3 3 3 4 4 5 5 5 4 3 3 3 4 2 4 4 5 6 7 7 7 6 6 6 6 6 6 6
3 3 3 2 3 3 2 3 3 3 4 4 4 4 4 4 4 4 4 4 4 4 5 6 4 3 4 5 4 5 5 5 4 7 7 7 7 6 6 6 6 6 6
4 3 3 3 4 3 3 3 4 4 4 4 4 4 5 4 4 5 4 5 4 4 5 6 5 4 5 5 5 6 5 5 4 6 7 7 7 7 6 6 5 5 6
4 3 3 4 4 4 3 3 4 4 5 4 4 4 5 4 4 4 5 5 5 5 5 6 6 4 4 4 5 5 5 5 5 5 7 9 9 8 7 6 5 5 5
4 4 4 4 4 4 4 4 4 4 4 4 4 4 5 5 5 5 5 5 5 5 5 6 6 5 4 4 4 4 4 4 4 4 3 4 8 10 10 8 7 5 5
4 4 4 4 3 3 3 3 4 4 4 4 4 5 5 4 4 5 5 5 5 6 5 5 5 5 4 3 4 4 4 4 3 3 3 3 3 4 5 7 7 6 6
3 3 4 4 4 3 1 1 4 4 4 5 5 5 5 4 4 4 5 7 7 6 6 6 6 5 5 5 5 5 5 5 4 2 3 4 3 3 3 2 3 6 7
3 3 3 3 3 2 1 1 4 5 5 5 5 5 6 4 4 5 5 7 7 6 7 7 7 7 6 5 5 6 5 6 5 4 4 5 4 4 4 2 5 6 7
3 3 3 3 3 2 1 2 4 5 5 5 5 5 6 5 5 5 6 5 6 6 7 7 7 7 6 5 6 7 7 6 6 4 4 5 5 5 4 3 7 8 7
3 3 3 3 4 3 1 3 5 5 5 5 5 5 5 5 3 4 6 6 6 6 5 5 6 7 7 7 6 6 5 5 5 4 3 5 5 5 5 4 5 10 9
3 4 3 4 4 4 2 3 5 5 5 5 5 5 4 4 4 4 6 6 7 6 5 5 5 6 7 7 8 7 6 6 5 5 3 4 4 4 4 4 4 4 6
Wind_Direction
80 87 87 82 86 94 108 109 103 108 115 125 131 132 129 125 137 146 138 161 180 190 198 205 206 202 199 197 199 199 200 202 206 208 207 214 221 223 221 223 224 224 223
79 84 95 88 88 91 89 98 108 118 107 107 122 129 134 118 129 160 151 158 173 186 194 203 210 210 209 210 212 212 215 219 218 216 217 220 226 229 230 232 229 229 230
88 90 91 98 88 100 108 105 108 112 139 131 120 131 138 141 143 164 176 169 171 183 193 205 214 218 225 224 223 222 221 223 224 221 223 225 229 232 234 235 233 233 233
88 90 82 86 101 116 114 121 108 113 114 124 131 136 139 156 177 188 184 182 192 192 191 198 209 219 229 231 229 229 226 224 226 229 231 232 233 234 236 236 236 237 237
86 92 67 62 136 111 111 118 102 111 129 132 157 160 173 182 182 193 195 191 190 207 208 187 204 220 229 232 233 235 231 227 230 236 239 239 238 239 239 239 239 239 240
84 67 130 18 324 81 120 104 165 147 175 193 150 117 184 183 193 180 203 194 195 206 212 212 209 215 222 232 238 239 234 229 228 231 236 240 242 241 242 241 239 238 239
86 315 347 356 295 343 284 215 201 174 182 161 174 169 161 161 154 174 193 206 195 210 214 219 236 247 211 206 216 226 229 229 229 229 232 237 240 241 243 242 242 239 238
272 204 305 285 327 261 246 244 228 243 173 183 243 234 190 161 160 150 175 187 216 216 221 223 233 246 265 241 180 200 221 232 232 233 237 239 240 239 239 243 244 244 242
322 331 304 317 308 293 90 255 240 242 249 200 260 294 288 278 116 131 136 171 217 251 249 246 242 239 243 250 236 194 208 223 230 238 245 243 241 240 238 240 241 242 239
316 312 325 329 328 357 42 257 140 255 260 240 162 254 312 336 290 234 186 155 179 234 269 280 277 257 244 244 226 226 196 216 226 236 242 244 245 242 241 240 241 243 241
205 321 0 350 334 8 34 22 25 323 292 298 299 264 205 220 247 262 273 287 275 257 251 269 284 284 276 260 251 178 162 200 216 225 236 241 248 248 245 243 244 245 245
194 176 183 326 318 14 52 27 356 354 335 331 316 310 279 267 264 258 259 263 278 286 276 279 270 262 262 259 247 119 168 200 217 224 230 232 242 246 245 246 249 251 252
207 168 224 221 304 320 277 306 249 328 306 274 280 299 311 301 293 281 273 286 289 283 274 274 277 275 267 261 226 175 199 208 220 224 227 233 239 240 239 241 250 253 253
261 178 213 218 242 260 263 259 256 239 244 258 273 296 293 294 291 279 279 283 281 278 271 284 290 290 290 278 309 246 226 197 216 223 228 236 239 237 238 238 245 250 250
241 211 229 235 233 237 252 262 274 269 263 258 259 255 267 277 271 276 271 276 282 282 284 279 275 291 294 280 280 266 261 202 213 223 229 234 237 238 238 238 241 245 246
259 246 246 249 255 251 247 255 254 252 257 260 265 282 282 274 273 268 269 271 271 274 279 291 288 286 296 292 257 266 260 214 219 218 223 229 234 238 238 239 242 244 244
238 240 247 251 256 256 253 254 266 266 257 260 262 260 267 283 282 280 277 273 270 269 269 281 290 289 280 281 279 270 261 254 238 209 218 226 230 232 233 235 237 245 245
235 235 243 251 255 254 254 253 259 262 261 262 268 276 278 276 276 281 280 277 273 269 265 277 285 284 272 269 268 267 268 261 255 206 211 222 225 225 229 229 227 231 234
239 240 241 248 252 252 251 253 256 260 261 265 269 272 279 283 280 280 277 274 268 265 262 267 277 284 280 276 274 268 265 264 262 223 204 211 213 217 221 221 221 223 226
233 237 241 244 249 250 250 253 253 255 260 264 267 269 272 273 274 276 273 272 275 274 266 267 274 277 279 280 272 274 271 264 272 269 254 231 209 208 208 209 211 217 223
234 235 242 242 242 241 244 246 253 250 256 262 263 265 269 278 292 287 285 283 278 274 273 271 274 280 281 289 283 279 282 285 276 281 282 266 241 238 218 204 205 215 222
243 245 247 242 244 256 35 295 266 262 263 265 266 266 261 254 256 249 270 284 286 273 276 274 271 276 279 280 283 279 282 283 284 283 284 280 275 269 263 258 197 200 210
240 239 241 237 238 259 98 242 263 262 262 266 265 267 272 270 264 264 247 244 260 263 262 267 272 275 276 281 282 276 277 275 278 281 279 275 274 272 265 239 182 192 201
246 247 246 239 245 250 179 249 267 253 264 267 267 267 269 274 278 283 274 267 262 257 255 256 267 272 277 282 272 267 269 262 259 252 260 269 268 271 267 239 181 187 201
247 250 246 247 251 258 239 254 267 256 257 263 268 269 270 273 292 293 272 267 267 269 249 252 266 269 271 265 268 268 267 268 274 266 254 270 273 278 270 245 196 189 198
243 251 253 255 254 261 249 259 269 264 265 266 260 257 250 267 279 274 267 265 265 271 276 256 248 245 249 238 231 246 258 264 272 269 260 267 273 281 271 257 244 216 209
Height
1531 1531 1532 1532 1534 1535 1535 1536 1537 1538 1538 1539 1540 1541 1541 1542 1542 1543 1542 1542 1543 1543 1543 1544 1545 1545 1546 1547 1548 1548 1549 1549 1550 1550 1550 1551 1551 1551 1552 1552 1553 1553 1553
1533 1533 1534 1534 1535 1536 1536 1537 1537 1538 1539 1539 1540 1540 1541 1542 1541 1542 1543 1542 1542 1543 1543 1543 1544 1545 1545 1546 1546 1547 1547 1548 1548 1548 1548 1549 1549 1550 1550 1550 1551 1551 1551
1534 1535 1536 1536 1536 1536 1537 1537 1538 1538 1539 1540 1540 1540 1541 1541 1541 1541 1542 1543 1543 1542 1543 1543 1543 1544 1544 1545 1545 1545 1546 1546 1546 1546 1547 1547 1547 1548 1548 1548 1548 1549 1549
1536 1536 1537 1537 1537 1537 1538 1538 1538 1539 1539 1539 1540 1540 1540 1540 1540 1541 1542 1542 1542 1543 1542 1542 1542 1543 1543 1543 1543 1543 1544 1544 1544 1544 1545 1545 1545 1545 1546 1546 1546 1546 1546
1537 1537 1537 1537 1537 1538 1537 1538 1538 1538 1538 1538 1539 1539 1540 1540 1540 1541 1541 1542 1542 1542 1542 1541 1541 1541 1541 1541 1541 1541 1541 1541 1542 1542 1543 1543 1543 1543 1543 1543 1543 1543 1543
1537 1538 1538 1537 1537 1537 1537 1536 1536 1536 1537 1538 1538 1539 1539 1539 1540 1540 1540 1541 1541 1541 1541 1541 1541 1540 1540 1539 1539 1539 1539 1539 1540 1540 1541 1541 1541 1541 1541 1541 1541 1540 1540
1537 1538 1538 1537 1537 1537 1536 1536 1536 1536 1537 1537 1538 1538 1538 1539 1539 1539 1539 1540 1540 1539 1539 1539 1539 1539 1539 1538 1537 1537 1537 1537 1538 1538 1538 1538 1538 1538 1538 1538 1538 1538 1538
1538 1538 1537 1537 1537 1536 1535 1535 1535 1536 1536 1537 1537 1538 1538 1539 1538 1538 1538 1538 1538 1538 1538 1538 1537 1537 1537 1537 1536 1536 1535 1536 1535 1535 1536 1536 1536 1536 1536 1535 1535 1535 1534
1537 1537 1537 1536 1536 1536 1535 1534 1534 1535 1536 1536 1536 1537 1537 1536 1537 1538 1537 1537 1537 1537 1537 1536 1536 1535 1535 1534 1534 1534 1533 1533 1533 1533 1533 1533 1533 1533 1533 1532 1532 1532 1531
1537 1537 1536 1536 1535 1535 1534 1534 1534 1535 1535 1536 1536 1535 1536 1536 1537 1537 1537 1536 1536 1535 1535 1535 1534 1534 1533 1532 1532 1531 1531 1531 1530 1530 1530 1530 1530 1530 1530 1529 1529 1529 1528
1536 1536 1536 1535 1535 1535 1534 1534 1534 1534 1535 1535 1535 1535 1535 1535 1536 1536 1535 1536 1535 1534 1533 1533 1532 1531 1531 1530 1530 1529 1528 1528 1528 1527 1527 1527 1527 1527 1526 1526 1526 1526 1525
1536 1536 1536 1535 1535 1535 1534 1533 1533 1534 1534 1533 1534 1534 1535 1535 1535 1534 1534 1534 1533 1533 1532 1531 1530 1529 1529 1528 1528 1527 1526 1525 1525 1525 1524 1524 1523 1523 1523 1523 1523 1523 1522
1536 1535 1535 1534 1534 1534 1534 1533 1533 1533 1533 1533 1533 1533 1533 1533 1533 1533 1533 1532 1531 1531 1530 1530 1529 1528 1527 1526 1525 1524 1523 1523 1522 1521 1521 1520 1520 1520 1520 1520 1519 1519 1519
1535 1534 1534 1534 1533 1533 1533 1533 1533 1533 1533 1532 1532 1532 1532 1532 1532 1531 1531 1531 1530 1529 1529 1528 1527 1526 1525 1524 1523 1521 1521 1520 1519 1518 1518 1517 1517 1517 1516 1516 1516 1516 1515
1534 1533 1533 1532 1532 1532 1532 1532 1532 1532 1532 1532 1532 1531 1531 1530 1530 1529 1529 1529 1529 1527 1526 1526 1525 1523 1522 1521 1520 1519 1518 1517 1516 1515 1514 1514 1513 1513 1513 1513 1512 1512 1512
1531 1531 1531 1531 1531 1531 1531 1531 1531 1530 1530 1530 1529 1529 1528 1529 1528 1527 1527 1526 1526 1526 1524 1523 1522 1521 1519 1519 1517 1516 1515 1513 1512 1511 1511 1510 1510 1509 1509 1509 1509 1508 1508
1529 1529 1529 1529 1529 1529 1529 1529 1529 1529 1528 1528 1527 1527 1526 1526 1526 1525 1525 1524 1523 1523 1521 1520 1520 1518 1516 1515 1514 1513 1512 1511 1510 1508 1507 1506 1506 1505 1505 1505 1504 1504 1504
1527 1527 1527 1527 1527 1527 1527 1527 1527 1527 1526 1526 1525 1525 1524 1524 1522 1522 1522 1521 1520 1519 1519 1517 1516 1515 1513 1512 1511 1509 1509 1508 1506 1505 1504 1503 1502 1501 1501 1500 1500 1500 1500
1525 1525 1525 1525 1525 1525 1525 1525 1524 1524 1524 1523 1523 1522 1521 1521 1520 1520 1519 1518 1518 1517 1515 1514 1513 1512 1511 1509 1508 1507 1505 1504 1503 1502 1501 1499 1499 1498 1497 1496 1496 1495 1495
1522 1522 1522 1522 1522 1522 1522 1522 1522 1521 1521 1520 1520 1519 1519 1518 1517 1516 1516 1514 1514 1513 1512 1511 1510 1509 1508 1506 1505 1504 1502 1501 1500 1500 1498 1497 1495 1494 1493 1493 1492 1492 1492
1519 1519 1519 1520 1520 1520 1520 1519 1519 1519 1518 1517 1517 1516 1516 1515 1514 1513 1513 1512 1511 1510 1509 1508 1507 1506 1505 1503 1502 1500 1499 1498 1497 1496 1495 1494 1493 1492 1491 1490 1489 1489 1489
1516 1516 1516 1517 1517 1517 1516 1516 1516 1516 1515 1514 1513 1513 1512 1511 1510 1509 1508 1507 1507 1506 1505 1504 1503 1502 1501 1500 1498 1497 1496 1495 1494 1493 1492 1491 1491 1490 1489 1488 1487 1486 1486
1513 1513 1513 1513 1513 1513 1513 1512 1512 1512 1511 1511 1510 1509 1509 1508 1507 1505 1504 1503 1502 1501 1501 1500 1499 1498 1497 1496 1495 1494 1492 1492 1490 1490 1489 1488 1487 1486 1486 1485 1483 1483 1483
1510 1510 1510 1510 1510 1509 1509 1509 1509 1508 1508 1507 1506 1505 1504 1503 1502 1501 1500 1499 1498 1497 1496 1496 1495 1494 1493 1492 1491 1490 1489 1488 1487 1486 1485 1485 1484 1483 1482 1481 1480 1479 1479
1507 1507 1507 1506 1506 1506 1505 1505 1505 1504 1504 1503 1502 1501 1500 1499 1498 1497 1496 1495 1493 1492 1492 1491 1490 1489 1488 1487 1487 1487 1486 1485 1484 1483 1482 1481 1480 1479 1479 1478 1477 1476 1475
1503 1503 1503 1502 1502 1502 1501 1501 1501 1501 1500 1499 1498 1497 1496 1495 1494 1492 1491 1490 1489 1488 1487 1486 1485 1484 1483 1483 1482 1482 1482 1481 1480 1480 1478 1478 1477 1476 1475 1475 1474 1473 1472